Waarnemingen

Advertentie
Mijn weer
UFS TW Ems, Duitsland (10004): temperatuur & dauwpunt: 16.11.2017 08:00:00 - 22.11.2017 08:00:00 (CET)UFS TW Ems, Duitsland (10004): windsnelheid & windstoten: 16.11.2017 08:00:00 - 22.11.2017 08:00:00 (CET)UFS TW Ems, Duitsland (10004): luchtdruk: 16.11.2017 08:00:00 - 22.11.2017 08:00:00 (CET)UFS TW Ems, Duitsland (10004): zicht: 16.11.2017 08:00:00 - 22.11.2017 08:00:00 (CET)UFS TW Ems, Duitsland (10004): Zonneschijnduur: 16.11.2017 08:00:00 - 22.11.2017 08:00:00 (CET)
Datum & Tijd tt [°C] td [°C] ff [km/u] ff [kn] fx [km/u] fx [kn] ppp [hPa] vv [km] sd [min]
22.11.2017 08:00:00 12,2 11,1 47 25 61 33 998,4 7 0
22.11.2017 07:00:00 12,1 11,1 47 25 - - 998,2 7 0
22.11.2017 06:00:00 12,3 11,2 47 25 61 33 998,2 7 0
22.11.2017 05:00:00 12,3 11,2 47 25 65 35 998,3 7 0
22.11.2017 04:00:00 12,2 11,5 50 27 - - 997,9 8 0
22.11.2017 03:00:00 - - - - - - - - -
22.11.2017 02:00:00 11,8 10,9 43 23 58 31 999,4 8 0
22.11.2017 01:00:00 - - 47 25 - - 1000,0 8 0
22.11.2017 00:00:00 - - - - - - - - -
21.11.2017 23:00:00 11,8 10,0 43 23 54 29 1001,7 10 0
21.11.2017 22:00:00 11,1 10,9 40 21 - - - 7 0
21.11.2017 21:00:00 - - 32 18 - - 1002,6 1,7 0
21.11.2017 20:00:00 - - - - - - - - -
21.11.2017 19:00:00 10,7 10,6 18 10 - - 1004,1 6 0
21.11.2017 18:00:00 - - - - - - - - -
21.11.2017 17:00:00 - - - - - - - - -
21.11.2017 16:00:00 10,1 9,8 14 8 - - 1005,5 10 0
21.11.2017 15:00:00 9,8 9,6 18 10 - - 1005,8 10 0
21.11.2017 14:00:00 9,5 9,0 18 10 - - 1006,4 8 0
21.11.2017 13:00:00 9,5 8,9 22 12 - - 1007,0 10 0
21.11.2017 12:00:00 9,3 8,7 18 10 - - 1007,4 10 0
21.11.2017 11:00:00 8,6 8,1 22 12 - - 1007,9 8 0
21.11.2017 10:00:00 8,4 7,9 22 12 - - 1007,9 4,9 0
21.11.2017 09:00:00 8,3 7,8 25 14 - - 1007,6 1,6 0
21.11.2017 08:00:00 8,4 7,8 22 12 - - 1007,6 8 0
21.11.2017 07:00:00 8,4 7,7 14 8 - - 1007,6 10 0
21.11.2017 06:00:00 8,3 7,8 14 8 - - 1007,6 10 0
21.11.2017 05:00:00 8,2 7,8 14 8 - - 1007,8 2,6 0
21.11.2017 04:00:00 8,1 7,7 11 6 - - 1007,8 4,1 0
21.11.2017 03:00:00 8,1 7,3 14 8 - - 1007,5 9 0
21.11.2017 02:00:00 - - - - - - - - -
21.11.2017 01:00:00 7,7 6,9 14 8 - - 1007,6 10 0
21.11.2017 00:00:00 7,6 7,0 22 12 - - 1007,1 6 0
20.11.2017 23:00:00 7,5 7,0 18 10 - - 1006,8 6 0
20.11.2017 22:00:00 7,3 6,7 18 10 - - - 2,0 0
20.11.2017 21:00:00 7,2 - 22 12 - - 1007,0 2,6 0
20.11.2017 20:00:00 6,9 6,0 25 14 - - 1007,0 5 0
20.11.2017 19:00:00 7,1 5,9 29 16 - - 1007,3 10 0
20.11.2017 18:00:00 7,2 6,1 29 16 - - 1007,6 10 0
20.11.2017 17:00:00 7,0 5,7 32 18 - - 1008,1 10 0
20.11.2017 16:00:00 7,5 6,1 36 19 - - 1009,0 10 0
20.11.2017 15:00:00 7,1 5,9 32 18 - - 1009,7 10 0
20.11.2017 14:00:00 7,1 5,7 29 16 - - 1010,8 10 0
20.11.2017 13:00:00 7,6 4,7 29 16 - - 1012,0 10 0
20.11.2017 12:00:00 7,2 5,1 29 16 - - 1012,9 9 0
20.11.2017 11:00:00 7,6 4,5 25 14 - - 1013,4 10 0
20.11.2017 10:00:00 7,4 5,1 25 14 - - 1013,9 10 0
20.11.2017 09:00:00 7,3 3,4 29 16 - - 1014,1 10 0
20.11.2017 08:00:00 7,7 4,1 32 18 61 33 1014,4 10 0
20.11.2017 07:00:00 8,7 4,2 32 18 - - 1014,4 10 0
20.11.2017 06:00:00 7,9 3,7 29 16 54 29 1014,6 9 0
20.11.2017 05:00:00 8,0 4,5 32 18 58 31 1014,9 10 0
20.11.2017 04:00:00 8,2 4,2 25 14 - - 1015,0 10 0
20.11.2017 03:00:00 7,8 2,7 40 21 65 35 1015,2 9 0
20.11.2017 02:00:00 8,5 2,8 32 18 50 27 1015,8 10 0
20.11.2017 01:00:00 8,8 2,8 43 23 - - 1015,8 10 0
20.11.2017 00:00:00 8,8 3,7 40 21 54 29 1015,6 10 0
19.11.2017 23:00:00 9,2 2,7 43 23 58 31 1015,6 10 0
19.11.2017 22:00:00 9,2 0,5 50 27 - - 1015,3 10 0
19.11.2017 21:00:00 9,2 3,1 54 29 65 35 1015,0 10 0
19.11.2017 20:00:00 9,3 2,6 50 27 68 37 1014,7 10 0
19.11.2017 19:00:00 9,2 3,3 54 29 - - 1014,1 8 0
19.11.2017 18:00:00 9,4 4,0 58 31 83 45 1013,9 10 0
19.11.2017 17:00:00 9,5 4,3 58 31 83 45 1013,4 10 0
19.11.2017 16:00:00 9,3 5,2 58 31 - - 1012,8 8 18
19.11.2017 15:00:00 8,9 5,0 61 33 86 47 1012,4 10 6
19.11.2017 14:00:00 9,6 5,2 58 31 83 45 1011,7 9 24
19.11.2017 13:00:00 9,6 4,2 61 33 - - 1010,9 6 30
19.11.2017 12:00:00 9,7 4,2 61 33 83 45 1010,0 8 48
19.11.2017 11:00:00 9,8 4,8 61 33 83 45 1009,8 10 36
19.11.2017 10:00:00 9,8 4,8 61 33 - - 1008,8 10 0
19.11.2017 09:00:00 9,7 4,8 65 35 97 53 1008,4 10 0
19.11.2017 08:00:00 8,0 5,3 61 33 97 53 1008,2 2,4 0
19.11.2017 07:00:00 8,5 4,2 61 33 - - 1007,0 6 0
19.11.2017 06:00:00 8,5 4,5 72 39 94 51 1007,3 9 0
19.11.2017 05:00:00 9,2 5,3 61 33 94 51 1008,1 10 0
19.11.2017 04:00:00 9,6 3,8 65 35 - - 1008,2 10 0
19.11.2017 03:00:00 8,5 4,4 54 29 94 51 1008,7 8 0
19.11.2017 02:00:00 8,3 3,0 58 31 76 41 1008,7 10 0
19.11.2017 01:00:00 9,2 3,9 54 29 - - 1007,9 10 0
19.11.2017 00:00:00 7,6 4,4 54 29 76 41 1008,4 5 0
18.11.2017 23:00:00 9,3 3,0 50 27 72 39 1009,0 10 0
18.11.2017 22:00:00 8,5 3,0 43 23 - - 1009,5 10 0
18.11.2017 21:00:00 9,1 1,3 58 31 76 41 1009,4 10 0
18.11.2017 20:00:00 9,4 3,5 54 29 68 37 1009,8 10 0
18.11.2017 19:00:00 9,1 1,3 50 27 - - 1009,9 10 0
18.11.2017 18:00:00 9,2 1,2 54 29 65 35 1010,7 10 0
18.11.2017 17:00:00 8,2 4,2 50 27 72 39 1011,2 10 0
18.11.2017 16:00:00 8,9 3,5 50 27 - - 1011,2 10 6
18.11.2017 15:00:00 8,4 3,8 58 31 72 39 1011,1 10 36
18.11.2017 14:00:00 9,0 3,2 54 29 72 39 1010,9 1,5 42
18.11.2017 13:00:00 8,6 3,5 50 27 - - 1010,2 0,7 18
18.11.2017 12:00:00 8,7 1,2 54 29 76 41 1010,2 10 0
18.11.2017 11:00:00 7,9 3,0 50 27 79 43 1010,3 9 0
18.11.2017 10:00:00 8,2 4,1 47 25 - - 1010,3 10 0
18.11.2017 09:00:00 8,1 5,6 68 37 97 53 1009,8 2,8 0
18.11.2017 08:00:00 9,5 7,0 50 27 90 49 1010,6 4,0 0
18.11.2017 07:00:00 10,2 5,3 61 33 - - 1011,0 10 0
18.11.2017 06:00:00 9,5 6,2 58 31 86 47 1012,4 4,2 0
18.11.2017 05:00:00 9,8 6,2 54 29 72 39 1013,6 10 0
18.11.2017 04:00:00 - - - - - - - - -
18.11.2017 03:00:00 - - - - - - - - -
18.11.2017 02:00:00 9,5 5,8 43 23 65 35 1017,0 8 0
18.11.2017 01:00:00 - - - - - - - - -
18.11.2017 00:00:00 - - - - - - - - -
17.11.2017 23:00:00 10,0 3,8 40 21 58 31 1019,1 10 0
17.11.2017 22:00:00 - - - - - - - - -
17.11.2017 21:00:00 10,4 3,8 43 23 54 29 1020,3 10 0
17.11.2017 20:00:00 - - - - - - - - -
17.11.2017 19:00:00 10,1 3,2 36 19 - - 1021,7 10 0
17.11.2017 18:00:00 9,0 5,0 40 21 54 29 1022,0 9 0
17.11.2017 17:00:00 10,0 3,9 36 19 54 29 1023,0 10 0
17.11.2017 16:00:00 10,0 4,0 40 21 - - 1022,7 10 12
17.11.2017 15:00:00 10,1 2,8 36 19 50 27 1022,9 10 42
17.11.2017 14:00:00 10,3 3,6 36 19 50 27 1023,6 10 36
17.11.2017 13:00:00 9,7 4,0 25 14 - - 1024,4 10 42
17.11.2017 12:00:00 9,8 3,1 29 16 - - 1024,6 0,5 30
17.11.2017 11:00:00 - - - - - - - - -
17.11.2017 10:00:00 9,8 4,4 32 18 - - 1024,7 10 30
17.11.2017 09:00:00 - - - - - - - - -
17.11.2017 08:00:00 9,9 2,1 32 18 - - 1024,2 10 0
17.11.2017 07:00:00 9,8 3,8 32 18 - - 1024,1 10 0
17.11.2017 06:00:00 9,8 2,9 25 14 - - 1024,2 10 0
17.11.2017 05:00:00 10,0 2,1 25 14 - - 1023,8 10 0
17.11.2017 04:00:00 9,9 1,6 25 14 - - 1023,9 10 0
17.11.2017 03:00:00 9,9 2,8 32 18 - - 1023,7 10 0
17.11.2017 02:00:00 9,8 1,6 32 18 47 25 1023,4 10 0
17.11.2017 01:00:00 10,0 2,3 36 19 - - 1022,9 10 0
17.11.2017 00:00:00 10,0 1,7 32 18 50 27 1022,4 10 0
16.11.2017 23:00:00 9,9 3,6 43 23 54 29 1021,6 10 0
16.11.2017 22:00:00 10,5 4,7 43 23 - - 1020,9 10 0
16.11.2017 21:00:00 10,8 5,6 40 21 58 31 1019,9 10 0
16.11.2017 20:00:00 10,8 7,6 43 23 54 29 1018,8 10 0
16.11.2017 19:00:00 10,0 6,9 47 25 - - 1018,0 10 0
16.11.2017 18:00:00 11,9 9,9 40 21 50 27 1017,2 9 0
16.11.2017 17:00:00 12,1 10,2 36 19 - - 1017,3 10 0
16.11.2017 16:00:00 11,8 10,8 40 21 - - 1017,3 8 0
16.11.2017 15:00:00 11,4 10,7 43 23 54 29 1017,5 4,7 0
16.11.2017 14:00:00 11,2 10,4 43 23 54 29 1018,1 5 0
16.11.2017 13:00:00 11,0 10,1 40 21 - - 1018,4 6 6
16.11.2017 12:00:00 11,1 10,2 36 19 47 25 1019,2 9 0
16.11.2017 11:00:00 11,1 10,1 36 19 - - 1019,4 8 0
16.11.2017 10:00:00 11,2 10,3 32 18 - - 1019,5 10 0
16.11.2017 09:00:00 11,1 10,0 32 18 - - 1020,0 9 0
16.11.2017 08:00:00 10,9 9,9 29 16 - - 1019,7 10 0

tt = temperatuur
td = dauwpunt
ff = windsnelheid
fx = windstoten
ppp = luchtdruk
vv = zicht
sd = Zonneschijnduur

Weerstations in de omgeving